Home > Weather > Hat Yai > Past weeks

Flag for Thailand Past Weather in Hat Yai, Thailand — Yesterday and Last 2 Weeks

Now
79 °F

Passing clouds.


Feels Like: 82 °F
Forecast: 75 / 92 °F
Wind: No wind

Location: Hat Yai Airport

Current Time: Jul 30, 2016 at 10:02:33 PM

Latest Report: Jul 30, 2016 at 9:30 PM


Visibility: N/A

Pressure: 29.83 "Hg

Humidity: 89%

Dew Point: 75 °F

Location of Hat YaiLocation

Past Weather in Hat Yai — Graph

°F

Hat Yai Temperature Yesterday

Maximum temperature yesterday: 91 °F (at 12:30 PM)
Minimum temperature yesterday: 75 °F (at 2:00 AM)
Average temperature yesterday: 82 °F

High & Low Weather Summary for the Past Weeks

 TemperatureHumidityPressure
High93 °F (Jul 16, 12:30 PM)100% (Jul 15, 9:30 PM)29.92 "Hg (Jul 15, 9:30 PM)
Low73 °F (Jul 17, 12:00 AM)49% (Jul 29, 4:30 PM)29.71 "Hg (Jul 18, 5:00 PM)
Average80 °F88%29.80 "Hg
* Reported Jul 15 9:00 PM — Jul 30 9:00 PM, Hat Yai, Weather by CustomWeather, © 2016

Note: Actual official high and low records may vary slightly from our data, if they occured in-between our weather recording intervals... More about our weather records

Advertising

Hat Yai Weather History for the Previous 24 Hours

Scroll right to see more
 ConditionsComfort  
Time TempWeatherWind HumidityBarometerVisibility
9:00 PM
Sat, Jul 30
79 °FPassing clouds.No wind89%29.83 "HgN/A
8:30 PM79 °FPassing clouds.No wind84%29.80 "HgN/A
8:00 PM79 °FPassing clouds.2 mph89%29.80 "HgN/A
7:30 PM79 °FPassing clouds.2 mph89%29.77 "HgN/A
7:00 PM81 °FPartly cloudy.5 mph84%29.77 "HgN/A
6:30 PM81 °FScattered clouds.5 mph84%29.77 "HgN/A
6:00 PM84 °FScattered showers. Scattered clouds.6 mph79%29.74 "HgN/A
5:30 PM86 °FScattered showers. Scattered clouds.2 mph70%29.74 "HgN/A
5:00 PM86 °FScattered showers. Scattered clouds.10 mph70%29.74 "HgN/A
4:30 PM91 °FScattered clouds.9 mph59%29.71 "HgN/A
4:00 PM91 °FScattered showers. Scattered clouds.3 mph56%29.74 "HgN/A
3:30 PM91 °FScattered showers. Scattered clouds.3 mph59%29.74 "HgN/A
3:00 PM88 °FScattered clouds.8 mph62%29.74 "HgN/A
2:30 PM93 °FScattered clouds.6 mph53%29.77 "HgN/A
2:00 PM93 °FScattered clouds.5 mph49%29.77 "HgN/A
1:30 PM93 °FScattered clouds.6 mph53%29.77 "HgN/A
1:00 PM93 °FScattered clouds.3 mph49%29.80 "HgN/A
12:30 PM93 °FScattered clouds.8 mph49%29.80 "HgN/A
12:00 PM91 °FScattered clouds.5 mph52%29.80 "HgN/A
11:30 AM91 °FPassing clouds.5 mph49%29.80 "HgN/A
11:00 AM90 °FPassing clouds.5 mph55%29.83 "HgN/A
10:30 AM88 °FPassing clouds.3 mph59%29.83 "HgN/A
10:00 AM88 °FPassing clouds.2 mph66%29.83 "HgN/A
9:30 AM86 °FPassing clouds.2 mph70%29.83 "HgN/A
9:00 AM84 °FPassing clouds.2 mph84%29.83 "HgN/A
8:30 AM81 °FPassing clouds.3 mph94%29.83 "HgN/A
8:00 AM79 °FPassing clouds.3 mph100%29.83 "HgN/A
7:30 AM77 °FPassing clouds.2 mph100%29.80 "HgN/A
7:00 AM73 °FPassing clouds.No wind100%29.80 "HgN/A
6:30 AM73 °FPassing clouds.No wind100%29.80 "HgN/A
6:00 AM73 °FPassing clouds.No wind100%29.80 "HgN/A
5:30 AM73 °FPassing clouds.No wind100%29.77 "HgN/A
5:00 AM73 °FPassing clouds.No wind100%29.77 "HgN/A
4:30 AM73 °FPassing clouds.2 mph100%29.77 "HgN/A
4:00 AM75 °FPassing clouds.No wind100%29.77 "HgN/A
3:30 AM75 °FPassing clouds.2 mph100%29.77 "HgN/A
3:00 AM75 °FPassing clouds.No wind100%29.80 "HgN/A
2:30 AM75 °FPassing clouds.No wind100%29.80 "HgN/A
2:00 AM75 °FPassing clouds.2 mph100%29.80 "HgN/A
1:30 AM75 °FPassing clouds.2 mph100%29.80 "HgN/A
1:00 AM75 °FPassing clouds.No wind100%29.83 "HgN/A
12:30 AM75 °FPassing clouds.No wind100%29.83 "HgN/A
12:00 AM75 °FPassing clouds.No wind100%29.83 "HgN/A
11:30 PM
Fri, Jul 29
77 °FPassing clouds.2 mph89%29.83 "HgN/A
11:00 PM79 °FPassing clouds.No wind84%29.83 "HgN/A
10:30 PM77 °FPassing clouds.No wind94%29.83 "HgN/A
10:00 PM77 °FPassing clouds.No wind94%29.83 "HgN/A
Weather by CustomWeather, © 2016

See weather overviewHow to use our weather pages